ATLAS 5 CENTAUR DEB, 44895

Orbit data source: Space-Track

ATLAS 5 CENTAUR DEB, 44895 is space debris in HEO originally from a launch on Wed, 17 Oct 2018 UTC launched from the Air Force Eastern Test Range (AFETR). Debris objects in space refer to the collection of defunct objects orbiting the Earth. Examples of debris include non-operational satellites, rocket bodies, and fragments generated from explosions, collisions, or faulty payload assembly.

Loading next visibility...
Identifier
44895, 2018-079BJ
Orbit
HEO
Country
Flag of USUS
Related business
Flag of USUnited Launch Alliance/Lockheed Martin (US)
Manufacturer
ULA Decatur
Mission
Spacecraft
Bus & Motor
Unknown
Mass
Unknown
Launch date (UTC)
2018-10-17 (8 years ago)
Launch vehicle
Unknown
Launch site
Air Force Eastern Test Range (AFETR)
Object type
Payload
Rocket body
Debris
Shape & HBR
Unknown shape, 1.1 m
Radar Cross Section
RCS unknown

Expand to show TLE details & history
Last TLE update: 2 weeks ago

TLE from 2 weeks ago
0 ATLAS 5 CENTAUR DEB
1 44895U 18079BJ  26158.50633173 -.00000059  00000-0  00000-0 0  9990
2 44895  13.0567  40.8586 4311053 307.8040  20.4358  1.87753580 46134
Epoch: 2026-06-07T12:09Z
TLE epoch observation values (Epoch: 2026-06-07T12:09:07.061Z)
Latitude
0.00008°
Longitude
-37.3653°
Altitude
11,516.695 km
Speed
5.494 km/s
True Right ascension
02h 43m 16s
True Declination
0° 00' 00"
Sunlit
Object was in daylight at epoch
Visualization orbit readout
Latitude
Unknown
Longitude
Unknown
Altitude
Unknown
Speed
Unknown
Apparent Right ascension
Unknown
Apparent Declination
Unknown
Sunlit
N/A
Visualization observer readout
Local Sidereal Time
21:37:05
Azimuth
Unknown
Elevation
Unknown
Doppler factor
Unknown
Orbital elements
Apogee altitude
33,345.234 km
Perigee altitude
9,412.745 km
Semi-major axis
27,757.126 km
Eccentricity
0.43111
Inclination
13.0567°
RAAN
40.8586°
Arg. of periapsis
307.804°
True anomaly
52.27906°
Mean anomaly
20.4358°
Eccentric anomaly
34.38568°
Mean motion
0.46933 °/min
Orbital period
767.05 mins
BSTAR
0
Loading maneuver chart data...
Computing Atmospheric mass density...

Documentation

Showing up to 5 results
|